Regional Weather Roundup
Issued by NWS

Home | Current Version | Previous Version | Text Only | Print | Product List | Glossary On
Versions: 1 2 3 4 5 6 7 8 9 10 11 12 13 14 15 16 17 18 19 20 21 22 23 24 25 26 27 28 29 30 31 32 33 34 35 36 37 38 39 40 41 42 43 44 45 46 47 48 49 50
000
ASUS43 KDTX 280610
RWRMI
MICHIGAN HOURLY REGIONAL WEATHER ROUNDUP
NATIONAL WEATHER SERVICE DETROIT/PONTIAC MI
200 AM EDT MON JUL 28 2014

NOTE: "FAIR" INDICATES FEW OR NO CLOUDS BELOW 12,000 FEET WITH NO
SIGNIFICANT WEATHER AND/OR OBSTRUCTION TO VISIBILITY.

MIZ047>049-052>055-059>063-066>070-074>076-081>083-280700-
SOUTHEAST LOWER MICHIGAN

CITY           SKY/WX    TMP DP  RH WIND       PRES   REMARKS
ADRIAN         CLEAR     61  59  93 N7        29.76R
6HR MIN TEMP:  60; 6HR MAX TEMP:  69;

ALMA           CLOUDY    62  60  92 NW9       29.80R
6HR MIN TEMP:  61; 6HR MAX TEMP:  63;

ANN ARBOR      MOCLDY    61  57  87 NW10      29.74S
BAD AXE        RAIN      61  59  94 N14G22    29.73R
6HR MIN TEMP:  61; 6HR MAX TEMP:  63;

CARO           HVY RAIN  64  64  98 N12G18    29.72R
DETROIT CITY   LGT RAIN  64  59  83 W6        29.70F
6HR MIN TEMP:  63; 6HR MAX TEMP:  66; 6HR PCP:  0.05;

DETROIT        CLOUDY    61  59  93 W12       29.72F
6HR MIN TEMP:  61; 6HR MAX TEMP:  62; 6HR PCP:  0.01;

FLINT          LGT RAIN  63  60  90 NW10      29.74S
6HR MIN TEMP:  62; 6HR MAX TEMP:  63; 6HR PCP:  0.03;

GROSSE ILE     CLOUDY    63  59  88 W8        29.71F
HILLSDALE      CLOUDY    63  63  99 NW9G16    29.77S
6HR MIN TEMP:  61; 6HR MAX TEMP:  70;

HOWELL         CLOUDY    61  60  96 NW7       29.75S

CITY           SKY/WX    TMP DP  RH WIND       PRES   REMARKS
JACKSON        PTCLDY    59  58  96 NW5       29.77S
6HR MIN TEMP:  59; 6HR MAX TEMP:  62;

LAMBERTVILLE   CLEAR     61  57  88 NW3       29.74F
LANSING        CLOUDY    61  59  93 NW9       29.78S
6HR MIN TEMP:  60; 6HR MAX TEMP:  62; 6HR PCP: TRACE;

LAPEER         CLOUDY    62  60  94 NW6       29.72F
MASON          CLOUDY    60  59  95 NW7       29.77S
MONROE         PTCLDY    61  59  94 NW6       29.71F
MT. CLEMENS    LGT RAIN  63  61  94 W8        29.67F
6HR MIN TEMP:  61; 6HR MAX TEMP:  63; 6HR PCP:  0.10;

PORT HOPE        N/A     63  60  90 N15G22    29.71R
6HR MIN TEMP:  63; 6HR MAX TEMP:  65; 6HR PCP:  0.35;

PORT HURON     CLOUDY    61  61 100 NW7       29.67F
TRI CITIES     LGT RAIN  64  60  87 N18       29.77R
6HR MIN TEMP:  64; 6HR MAX TEMP:  65; 6HR PCP:  0.06;

TROY           CLOUDY    62  60  93 W7        29.71F
SAGINAW HB     LGT RAIN  63  63 100 N10       29.74S
$$
MIZ043>046-050>051-056>058-064>065-071>073-077>080-280700-
SOUTHWEST LOWER MICHIGAN

CITY           SKY/WX    TMP DP  RH WIND       PRES   REMARKS
BATTLE CREEK   CLOUDY    62  59  90 NW8       29.81R
6HR MIN TEMP:  62; 6HR MAX TEMP:  69; 6HR PCP: TRACE;

BENTON HARBOR  CLOUDY    62  57  83 VRB7      29.84R
6HR MIN TEMP:  62; 6HR MAX TEMP:  67;

BIG RAPIDS     CLOUDY    60  60 100 N8G17     29.84S
6HR MIN TEMP:  60; 6HR MAX TEMP:  66; 6HR PCP:  0.12;

COLDWATER      CLOUDY    63  59  88 NW12      29.79S
6HR MIN TEMP:  63; 6HR MAX TEMP:  72;

FREMONT        CLOUDY    61  55  82 N12       29.85S
HOLLAND        CLOUDY    64  60  87 NW6       29.84R
6HR MIN TEMP:  63; 6HR MAX TEMP:  68; 6HR PCP:  0.01;

GRAND RAPIDS   MOCLDY    65  62  90 NW8       29.82R
6HR MIN TEMP:  64; 6HR MAX TEMP:  70; 6HR PCP:  0.01;

IONIA          CLOUDY    62  60  93 NW6       29.80R
KALAMAZOO      CLOUDY    63  58  83 NW10      29.81S
6HR MIN TEMP:  62; 6HR MAX TEMP:  69;

LUDINGTON      PTCLDY    57  53  86 N14       29.89S
6HR MIN TEMP:  57; 6HR MAX TEMP:  61;

MARSHALL       CLOUDY    60  59  96 W9        29.78S FOG
MOUNT PLEASANT CLOUDY    63  60  91 NW6       29.80R
6HR MIN TEMP:  63; 6HR MAX TEMP:  64;

MUSKEGON       PTCLDY    62  54  74 N14G21    29.86R
6HR MIN TEMP:  62; 6HR MAX TEMP:  67;

SOUTH HAVEN    CLOUDY    60  58  93 N12G20    29.84R
$$
MIZ016>042-280700-
NORTHERN LOWER MICHIGAN

CITY           SKY/WX    TMP DP  RH WIND       PRES   REMARKS
ALPENA         CLOUDY    62  54  74 N17       29.83R
6HR MIN TEMP:  62; 6HR MAX TEMP:  65; 6HR PCP:  0.01;

BEAVER ISLAND  CLEAR     55  51  85 N8        29.92R
6HR MIN TEMP:  55; 6HR MAX TEMP:  63;

BELLAIRE       PTCLDY    60  54  80 N5        29.87S
6HR MIN TEMP:  60; 6HR MAX TEMP:  67;

CADILLAC       CLOUDY    57  55  94 N10       29.86R
CHARLEVOIX     CLOUDY    62  57  84 N12G18    29.92R
6HR MIN TEMP:  62; 6HR MAX TEMP:  64;

FRANKFORT      CLEAR     59  53  79 N9G16     29.90S
GAYLORD        MOCLDY    58  52  80 VRB6      29.87R
6HR MIN TEMP:  58; 6HR MAX TEMP:  64; 6HR PCP: TRACE;

GRAYLING       CLOUDY    61  57  86 N10       29.86R
6HR MIN TEMP:  61; 6HR MAX TEMP:  67;

HARBOR SPRINGS CLOUDY    59  52  78 N8        29.88S
HOUGHTON LAKE  CLOUDY    62  58  86 N12       29.84R
6HR MIN TEMP:  62; 6HR MAX TEMP:  64;

MANISTEE       CLOUDY    61  52  72 N8        29.89S
OSCODA         CLOUDY    63  58  84 N14G20    29.77S
PELLSTON       MOCLDY    58  52  80 N7        29.89R
6HR MIN TEMP:  58; 6HR MAX TEMP:  66;

ROGERS CITY    CLOUDY    61  56  84 N10G17    29.86R
TRAVERSE CITY  CLOUDY    62  54  74 N12G18    29.87R
6HR MIN TEMP:  62; 6HR MAX TEMP:  67; 6HR PCP: TRACE;

$$
MIZ007>008-015-280700-
EASTERN UPPER MICHIGAN

CITY           SKY/WX    TMP DP  RH WIND       PRES   REMARKS
KINROSS        CLEAR     55  50  82 N7        29.90R
6HR MIN TEMP:  55; 6HR MAX TEMP:  64;

MACKINAC ISLAN CLOUDY    57  53  88 N8        29.89R
6HR MIN TEMP:  56; 6HR MAX TEMP:  64; 6HR PCP:  0.01;

NEWBERRY       PTCLDY    47  44  87 N8        29.94R
S. S. MARIE    PTCLDY    57  47  69 NE7       29.90R
6HR MIN TEMP:  57; 6HR MAX TEMP:  69;

MUNISING         N/A     53  46  77 NE17      29.99S
6HR MIN TEMP:  53; 6HR MAX TEMP:  61;

$$
MIZ004>006-011>014-085-280700-
CENTRAL UPPER MICHIGAN

CITY           SKY/WX    TMP DP  RH WIND       PRES   REMARKS
MANISTIQUE     CLEAR     49  45  84 N9        29.95S
6HR MIN TEMP:  49; 6HR MAX TEMP:  61;

ESCANABA       CLEAR     52  43  71 NW6       29.99S
6HR MIN TEMP:  52; 6HR MAX TEMP:  64;

MENOMINEE      CLEAR     55  45  67 N13       29.98R
6HR MIN TEMP:  55; 6HR MAX TEMP:  64;

SAWYER-GWINN   CLEAR     49  43  79 N8        30.02R
6HR MIN TEMP:  49; 6HR MAX TEMP:  59;

$$
MIZ001>003-009>011-084-280700-
WESTERN UPPER MICHIGAN

CITY           SKY/WX    TMP DP  RH WIND       PRES   REMARKS
IRON MOUNTAIN  CLEAR     52  45  77 N7        30.02R
6HR MIN TEMP:  52; 6HR MAX TEMP:  65;

HOUGHTON       CLEAR     49  45  86 MISG      30.05S
6HR MIN TEMP:  48; 6HR MAX TEMP:  60;

COPPER HARBOR    N/A     50  46  86 CALM      30.05R
6HR MIN TEMP:  50; 6HR MAX TEMP:  56;

$$

ABBREVIATIONS USED IN REMARKS
   TC - TEMPERATURE IN CELSIUS
  WCI - WIND CHILL INDEX
   HX - HEAT INDEX
  VSB - VISIBILITY



USA.gov is the U.S. government's official web portal to all federal, state and local government web resources and services.